Burlington, VT

9:36 PM EDT on April 21, 2018 (GMT -0400)
Burlington International

Weather History for KBTV - September, 2013

Change the Weather History Date:

Wednesday, September 25, 2013

  Actual Average Record
Temperature  
Mean Temperature 54 °F 57 °F  
Max Temperature 67 °F 66 °F 92 °F (2017)
Min Temperature 41 °F 47 °F 28 °F (1963)
Degree Days  
Heating Degree Days 11 9  
Month to date heating degree days 161 124  
Since 1 July heating degree days 177 166  
Cooling Degree Days 0 0  
Month to date cooling degree days 58 41  
Year to date cooling degree days 658 489  
Growing Degree Days 4 (Base 50)    
Moisture  
Dew Point 45 °F    
Average Humidity 74    
Maximum Humidity 96    
Minimum Humidity 52    
Precipitation  
Precipitation 0.00 in 0.14 in 1.51 in (1945)
Month to date precipitation 4.74 3.00  
Year to date precipitation 37.43 27.07  
Snow  
Snow 0.00 in 0.00 in 0.00 in (2002)
Month to date snowfall 0.0 0.0  
Since 1 July snowfall 0.0 0.0  
Since 1 September snowfall 0.0 0.0  
Snow Depth 0.00 in    
Sea Level Pressure  
Sea Level Pressure 29.97 in    
Wind  
Wind Speed 4 mph (NNE)    
Max Wind Speed 14 mph    
Max Gust Speed 20 mph    
Visibility 10 miles    
Events      
T = Trace of Precipitation, MM = Missing Value Source: NWS Daily Summary

Daily Weather History Graph

Daily Weather History Graph

Search for Another Location

Airport or City:

Astronomy

Sep. 25, 2013 Rise Set
Actual Time 6:43 AM EDT 6:44 PM EDT
Civil Twilight 6:14 AM EDT 7:12 PM EDT
Nautical Twilight 5:40 AM EDT 7:46 PM EDT
Astronomical Twilight 5:05 AM EDT 8:21 PM EDT
Moon 10:36 PM EDT (9/25) 12:59 PM EDT (9/25)
Length of Visible Light 12h 58m
Length of Day
12h 00m
Waning Gibbous, 64% of the Moon is Illuminated
Sep 25
Waning Gibbous
Sep 26
Last Quarter
Oct 4
New
Oct 11
First Quarter
Oct 18
Full

Hourly Weather History & Observations

Time (EDT) Temp. Windchill Dew Point Humidity Pressure Visibility Wind Dir Wind Speed Gust Speed Precip Events Conditions
12:54 AM 46.0 °F - 44.1 °F 93% 29.94 in 10.0 mi Calm Calm - N/A   Clear
1:54 AM 46.0 °F - 44.1 °F 93% 29.95 in 10.0 mi Calm Calm - N/A   Clear
2:54 AM 44.1 °F 42.5 °F 42.1 °F 93% 29.95 in 10.0 mi East 3.5 mph - N/A   Clear
3:54 AM 44.1 °F - 41.0 °F 89% 29.96 in 10.0 mi Calm Calm - N/A   Clear
4:54 AM 43.0 °F - 41.0 °F 93% 29.96 in 10.0 mi Calm Calm - N/A   Clear
5:54 AM 43.0 °F - 41.0 °F 93% 29.97 in 10.0 mi Calm Calm - N/A   Clear
6:54 AM 42.1 °F - 41.0 °F 96% 29.96 in 10.0 mi Calm Calm - N/A   Clear
7:54 AM 46.0 °F - 43.0 °F 89% 29.96 in 10.0 mi Calm Calm - N/A   Clear
8:54 AM 51.1 °F - 46.0 °F 83% 29.97 in 10.0 mi Calm Calm - N/A   Clear
9:54 AM 57.0 °F - 48.0 °F 72% 29.98 in 10.0 mi NNE 3.5 mph - N/A   Partly Cloudy
10:54 AM 60.1 °F - 46.0 °F 60% 29.97 in 10.0 mi Calm Calm - N/A   Partly Cloudy
11:54 AM 62.1 °F - 46.0 °F 56% 29.97 in 10.0 mi NNW 8.1 mph - N/A   Scattered Clouds
12:54 PM 63.0 °F - 45.0 °F 52% 29.96 in 10.0 mi North 8.1 mph - N/A   Mostly Cloudy
1:54 PM 64.0 °F - 46.0 °F 52% 29.95 in 10.0 mi North 9.2 mph - N/A   Overcast
2:54 PM 64.9 °F - 46.9 °F 52% 29.95 in 10.0 mi NNE 11.5 mph 19.6 mph N/A   Overcast
3:54 PM 64.9 °F - 48.0 °F 54% 29.94 in 10.0 mi NNE 10.4 mph - N/A   Partly Cloudy
4:54 PM 63.0 °F - 46.9 °F 56% 29.95 in 10.0 mi NNE 11.5 mph - N/A   Partly Cloudy
5:54 PM 60.1 °F - 46.9 °F 62% 29.97 in 10.0 mi NE 8.1 mph - N/A   Partly Cloudy
6:54 PM 57.0 °F - 48.0 °F 72% 29.98 in 10.0 mi NE 4.6 mph - N/A   Partly Cloudy
7:54 PM 54.0 °F - 46.9 °F 77% 29.99 in 10.0 mi North 3.5 mph - N/A   Partly Cloudy
8:54 PM 54.0 °F - 46.9 °F 77% 30.00 in 10.0 mi NNW 3.5 mph - N/A   Mostly Cloudy
9:54 PM 50.0 °F - 46.9 °F 89% 30.02 in 10.0 mi NNE 4.6 mph - N/A   Clear
10:54 PM 48.9 °F - 46.0 °F 90% 30.02 in 10.0 mi East 3.5 mph - N/A   Clear
11:54 PM 48.0 °F - 45.0 °F 89% 30.04 in 10.0 mi Calm Calm - N/A   Clear